User: anonymous   Login
Location: Newark
(60.6561°N, 46.5772°E)
Time: 19:48:34
(UTC+00:00)
Language:

Explorer 11/Cluster Stage 4 - Orbit

View from above orbital plane
View from above orbital plane
View from above satellite
View from above satellite

Ground track
Ground track

The orbit data is extracted from the following two-line orbital elements,

1   107U 61013A   19293.84797569  .00000311  00000-0  24092-4 0  9994
2   107  28.7861 100.2010 0547239  58.2259 307.0445 14.08833028931819
Epoch (UTC): 20 October 2019 20:21:05
Eccentricity: 0.0547239
inclination: 28.7861°
perigee height: 467 km
apogee height: 1259 km
right ascension of ascending node: 100.2010°
argument of perigee: 58.2259°
revolutions per day: 14.08833028
mean anomaly at epoch: 307.0445°
orbit number at epoch: 93181

The dashed part of the orbit path shows where the satellite is in the earth's shadow,  

DLR